Location: Shepherdstown, WV
(39.4326°N, 77.8042°W)
Time: 20:28:26
(UTC-04:00)

Vanguard 1 Rocket - Pass Details

Date: 09 August 2021
Orbit: 650 x 4226 km, 34.3° (Epoch: 19 September)

Event Time Altitude Azimuth Distance (km) Brightness Sun altitude
Rises 14:51:05 0° 283° (WNW) 7,035 12.2 58.5°
Reaches altitude 10° 14:57:01 10° 276° (W) 5,402 11.8 57.6°
Maximum altitude 15:09:01 35° 219° (SW) 2,493 11.1 55.8°
Drops below altitude 10° 15:15:53 10° 156° (SSE) 3,058 10.3 54.7°
Sets 15:18:17 0° 146° (SE) 3,726 10.5 54.3°
